Location: Newark
(54.2500°N, 9.1833°E)
Time: 23:38:41
(UTC+00:00)

Vanguard 2 Rocket - Pass Details

Date: 10 December 2019
Orbit: 554 x 3326 km, 32.9° (Epoch: 21 January)

Event Time Altitude Azimuth Distance (km) Brightness Sun altitude
Rises 15:50:56 0° 202° (SSW) 6,733 12.3 -6.9°
Reaches altitude 10° 15:59:35 10° 180° (S) 5,076 11.1 -8.0°
Maximum altitude 16:04:26 13° 159° (SSE) 4,413 10.5 -8.7°
Drops below altitude 10° 16:08:35 10° 138° (SE) 4,195 10.1 -9.2°
Sets 16:14:01 0° 112° (ESE) 4,569 10.1 -9.9°
